Wind_Speed
4 5 1 4 7 4 4 3 3 4 4 3 2 5 4 1 5 8 8 8 8 9 9 17 21 25 31 30 31 29 28 24 22 20 14 16 28 33 34 38 37 36 35 33
6 1 4 5 2 4 3 2 4 5 4 2 4 5 4 2 1 1 4 7 7 11 13 15 19 21 23 25 28 30 28 28 24 22 19 15 19 22 31 33 35 39 37 36
3 5 5 4 2 3 2 2 3 5 3 3 1 1 4 3 2 3 2 4 6 8 12 14 20 23 24 24 29 29 30 28 26 24 23 22 20 21 27 28 35 42 41 39
2 5 6 5 3 3 2 2 3 4 4 3 3 4 4 4 5 4 6 6 7 10 11 11 15 23 26 28 29 29 29 28 26 24 24 23 21 18 21 25 32 38 42 39
5 5 7 7 5 3 6 4 2 2 1 1 2 3 5 2 3 6 8 10 11 11 10 13 13 21 25 27 30 29 27 26 26 26 24 25 24 23 27 26 29 32 37 41
3 4 3 3 4 2 5 1 4 3 3 2 1 4 5 2 1 5 6 8 9 11 12 12 19 22 23 27 26 28 26 25 23 25 27 27 27 28 25 27 30 29 33 37
6 4 5 4 6 4 9 6 4 5 4 4 1 2 7 3 2 2 7 11 10 10 11 14 16 19 24 26 26 25 26 28 22 21 22 26 28 29 31 29 28 26 29 30
4 6 5 7 1 3 4 3 4 4 2 5 3 4 4 3 1 5 7 9 9 10 11 13 15 21 25 25 26 27 26 26 24 23 25 27 27 28 29 29 30 31 32 32
4 5 3 3 2 2 1 4 2 5 2 2 4 6 6 4 6 7 9 11 12 12 12 13 16 21 23 25 26 28 29 28 26 27 25 26 27 25 28 31 32 30 35 32
2 2 1 5 3 3 5 5 3 4 2 4 5 5 5 4 7 9 10 12 13 11 10 13 14 22 25 24 26 28 28 29 30 30 26 25 28 28 27 32 34 32 32 33
3 3 5 3 0 2 3 3 5 4 3 2 3 6 5 2 6 9 11 12 12 12 10 13 14 23 25 25 26 27 28 31 31 30 33 29 28 28 28 30 34 33 32 34
1 4 3 6 5 3 2 3 4 3 2 3 1 6 2 6 8 8 11 12 13 10 10 13 14 21 24 25 27 26 30 31 30 32 32 29 29 26 27 27 31 30 31 32
4 1 3 7 5 5 1 2 3 3 2 4 2 5 1 7 9 10 10 12 12 9 11 14 14 14 19 24 27 27 31 32 33 32 31 30 28 24 25 27 27 30 30 34
5 3 6 6 7 3 5 4 4 5 2 3 6 8 12 10 9 12 12 13 13 11 9 13 15 18 22 27 26 31 31 31 33 34 30 30 29 27 27 24 24 29 28 27
4 3 4 6 9 4 10 12 10 8 5 6 6 6 11 10 8 9 9 10 11 11 10 15 18 18 21 26 28 33 32 33 35 34 33 30 31 28 25 19 22 20 28 29
2 2 2 5 3 2 8 7 5 4 4 7 8 10 7 6 7 7 14 11 13 11 13 16 19 17 18 23 30 33 31 34 36 32 31 30 20 19 9 13 21 29 34 34
4 5 2 4 3 6 5 6 5 4 5 4 5 9 4 8 9 9 9 12 12 11 13 16 18 17 23 26 32 29 32 34 33 28 26 11 8 11 12 25 28 32 34 38
5 5 4 4 3 2 5 2 2 5 8 7 8 10 8 8 7 11 9 7 9 10 13 15 13 21 23 30 29 31 31 29 28 23 21 14 13 19 21 26 31 33 34 36
6 5 2 2 2 5 6 2 3 3 8 7 7 7 7 7 6 8 5 3 6 7 10 15 21 24 28 28 30 29 27 23 22 19 18 17 12 20 25 26 30 33 38 36
6 4 3 2 3 4 5 4 4 3 5 5 2 7 9 6 8 7 4 4 7 13 15 19 23 24 25 28 28 24 21 20 20 18 17 18 17 20 26 29 32 34 40 39
3 2 6 2 3 6 4 7 3 1 6 5 3 8 7 4 6 11 7 5 5 12 16 20 22 22 25 28 26 19 18 19 19 18 22 24 23 26 25 32 34 38 41 45
5 5 4 3 3 6 3 4 1 4 6 6 6 6 6 9 11 7 5 6 7 10 17 19 20 22 25 26 23 16 16 18 17 22 25 25 25 24 23 36 37 39 42 44
2 5 3 7 5 3 3 2 7 3 5 7 5 9 7 8 10 5 4 5 6 11 15 17 19 21 23 25 20 15 17 18 17 23 26 29 29 30 24 29 36 37 35 38
2 2 2 2 3 3 6 5 4 7 6 9 6 8 7 8 10 3 2 4 5 11 13 17 18 18 19 22 20 18 18 19 20 22 25 28 28 30 27 28 30 29 29 33
4 2 2 4 7 6 5 4 5 10 6 6 7 4 7 7 8 0 0 3 6 8 13 15 16 17 17 19 19 16 17 18 21 24 26 28 30 28 29 30 26 24 24 27
5 6 4 5 6 4 7 7 9 8 7 8 6 9 11 6 7 2 3 3 6 8 11 13 15 15 16 18 18 17 15 19 20 23 25 26 28 28 28 29 34 33 32 33
Wind_Direction
6 66 258 254 215 201 139 190 247 268 279 358 263 165 191 340 26 28 6 358 346 341 314 339 349 352 351 355 351 349 343 337 329 335 334 283 257 250 249 246 247 246 245 241
24 339 242 279 187 172 183 203 274 282 269 144 277 189 195 218 227 348 333 340 328 331 342 348 346 346 346 341 342 339 336 331 325 313 304 301 278 267 256 252 250 244 242 239
141 269 312 293 244 145 190 162 258 247 316 303 50 318 213 235 260 335 333 296 311 317 324 331 337 341 340 339 334 330 329 324 319 315 301 292 292 282 264 258 249 247 241 240
285 320 5 25 56 53 339 332 255 269 20 282 18 273 265 236 287 322 321 323 318 332 327 330 330 331 333 327 323 320 325 323 321 320 310 295 279 266 264 255 257 250 243 238
285 4 3 26 328 316 239 355 9 326 122 42 347 72 267 315 284 326 339 328 331 329 321 318 318 318 318 322 319 312 321 323 322 324 315 300 282 267 267 262 258 251 249 240
302 288 53 315 303 11 293 10 42 52 78 38 136 101 280 218 219 317 298 306 306 313 319 317 317 317 316 321 315 313 318 320 321 319 317 299 283 275 263 256 255 247 242 240
338 340 321 24 359 358 40 47 348 357 5 230 147 26 247 250 222 263 305 306 309 311 317 321 324 321 316 318 317 312 314 314 323 316 313 302 292 274 261 254 255 245 236 230
46 333 13 325 180 249 358 107 145 219 270 291 317 229 260 246 180 314 296 291 298 315 317 316 314 313 314 314 314 315 315 312 316 313 309 305 294 278 260 255 248 244 234 229
46 292 321 293 292 117 112 49 153 104 20 336 277 291 324 19 334 322 318 333 318 309 309 312 311 311 315 313 316 320 319 313 308 308 308 306 301 292 261 253 249 244 244 230
152 326 311 289 18 26 90 155 32 14 22 301 292 291 247 302 322 321 318 305 300 294 298 314 318 318 320 315 318 322 322 315 311 310 302 303 301 296 281 261 252 243 234 230
120 119 286 323 103 165 1 36 59 116 136 201 295 269 218 238 284 295 292 291 297 298 305 315 317 316 315 318 323 318 319 316 309 304 304 304 302 292 284 270 253 242 229 218
64 142 271 248 278 286 278 155 122 122 252 227 255 273 263 249 291 284 285 296 302 299 301 308 313 318 319 321 321 318 320 314 308 299 300 296 293 293 282 280 249 233 220 209
181 7 348 349 353 11 356 314 139 106 61 219 201 262 216 302 313 310 296 302 302 302 305 312 323 322 321 320 320 322 317 311 307 303 298 300 297 292 283 276 241 223 209 212
106 135 162 191 230 183 291 266 249 188 190 225 233 278 300 304 308 311 307 303 304 307 300 315 321 326 325 321 323 323 317 314 307 307 305 302 295 287 293 277 224 210 198 176
118 203 183 245 255 241 261 269 273 195 207 190 259 231 278 285 292 289 284 291 306 311 319 319 323 325 322 319 327 322 320 317 312 309 307 297 289 294 288 237 214 186 162 155
8 241 190 288 282 240 267 266 251 208 212 247 266 283 240 282 297 291 302 309 311 317 317 318 327 325 319 318 325 321 320 314 312 310 306 301 292 307 280 172 157 135 131 133
168 152 110 260 322 324 314 224 221 255 248 218 271 275 296 305 306 298 293 307 303 307 312 319 329 322 318 323 322 320 318 317 315 322 325 340 12 35 86 116 115 113 117 122
168 147 164 252 15 263 244 266 244 235 265 247 271 273 273 274 274 285 286 268 295 310 317 320 321 318 321 321 323 325 322 323 326 336 347 12 82 85 94 101 103 105 109 110
160 149 199 197 206 291 299 249 227 203 281 263 234 269 296 292 322 293 282 258 281 288 307 316 319 321 323 324 326 327 327 334 340 350 18 29 71 98 103 104 108 110 108 106
81 90 140 143 224 231 243 286 323 128 292 284 248 285 280 339 326 302 282 300 311 323 328 328 327 328 331 327 330 331 343 346 346 5 31 58 72 90 104 109 109 111 110 107
99 109 208 167 258 280 242 300 315 151 252 299 245 263 276 267 231 275 327 305 317 318 336 338 340 338 326 330 335 345 356 358 -0 34 51 66 80 90 103 107 108 109 108 105
170 155 201 154 204 272 358 354 295 233 293 274 303 284 281 275 287 295 294 317 338 338 346 351 341 333 332 339 341 10 12 12 37 61 62 64 76 89 102 106 104 104 108 106
255 181 191 184 224 249 338 255 268 246 249 280 285 285 279 281 282 309 292 326 348 347 341 354 342 333 342 349 6 25 19 31 55 68 68 68 73 79 87 100 106 104 107 110
267 151 188 24 292 275 310 310 278 297 280 288 282 279 289 277 288 249 292 341 5 351 353 349 340 340 348 358 21 30 41 50 60 68 72 79 81 80 78 87 94 104 116 115
208 119 188 267 288 295 252 234 296 323 315 322 317 295 301 306 310 204 147 13 15 358 2 351 342 343 358 10 23 37 54 60 66 70 73 74 73 76 81 84 89 95 103 112
181 201 179 234 234 185 262 290 317 313 309 315 319 332 331 325 317 115 84 39 12 22 8 352 351 357 9 23 28 36 66 71 76 79 78 79 82 82 83 94 93 98 105 111
Height
782 794 797 788 791 787 790 796 799 790 778 778 780 790 787 783 784 783 782 779 776 772 767 763 758 753 748 745 743 742 739 736 736 734 733 731 729 729 731 730 729 731 735 738
792 795 780 779 781 789 791 794 797 789 778 781 781 790 787 784 782 782 782 780 776 770 764 760 757 753 749 745 741 739 737 734 732 732 730 729 727 724 723 725 727 725 728 731
795 784 776 778 777 784 786 792 790 792 783 782 782 796 791 784 780 779 779 779 776 774 767 759 753 750 747 742 738 735 733 732 728 726 723 723 722 719 718 717 717 719 719 723
789 781 783 781 782 783 791 780 783 786 794 807 788 815 792 786 784 780 780 778 774 770 765 760 753 747 744 741 738 734 731 729 724 721 719 717 716 714 712 712 711 712 713 714
795 790 791 791 791 782 791 780 787 787 796 799 797 818 796 787 785 783 779 775 771 768 765 760 754 749 744 739 735 731 727 722 720 716 715 712 710 708 706 706 705 706 708 709
794 787 787 789 784 783 781 783 795 804 811 828 800 811 801 792 783 784 780 777 773 768 764 759 753 747 742 737 733 728 723 718 714 711 709 707 704 702 702 699 698 699 699 701
806 796 790 787 793 787 792 808 839 825 832 817 802 812 799 783 779 779 780 776 771 767 762 756 750 744 739 734 730 726 720 713 709 706 704 700 698 696 692 692 692 692 691 693
822 822 799 791 793 799 799 808 840 852 846 827 812 816 792 781 777 778 777 775 770 765 760 756 749 743 737 732 727 722 718 711 705 701 697 693 689 686 683 683 683 682 682 684
823 817 797 790 790 794 799 816 812 839 844 835 821 802 785 780 781 779 776 771 768 763 758 754 747 742 735 729 724 719 712 707 701 695 689 685 681 678 675 673 672 672 674 676
809 826 802 797 789 791 796 802 822 839 852 827 817 814 808 787 787 781 778 774 767 761 757 750 743 736 731 726 720 715 709 703 696 689 684 678 673 669 668 666 663 664 664 668
807 819 812 803 800 806 809 812 820 828 839 840 836 816 790 784 784 784 779 772 765 758 754 747 740 734 729 722 716 712 706 700 691 684 677 669 665 661 659 657 655 654 657 657
808 826 828 813 800 797 795 801 812 824 823 832 828 810 782 782 782 781 776 767 760 755 750 744 738 733 727 719 713 707 701 694 686 678 670 663 657 652 650 645 646 645 648 651
807 825 834 820 811 801 802 801 803 813 823 827 820 813 779 781 779 774 772 763 756 752 748 741 736 731 725 718 710 703 697 688 679 671 663 655 648 644 640 635 635 638 641 646
802 824 826 845 820 812 813 805 803 810 819 815 810 799 781 781 780 773 767 759 753 750 746 739 733 727 721 714 706 699 691 683 673 662 655 647 641 635 630 626 628 631 634 639
806 815 819 815 811 810 807 803 800 809 804 810 795 799 784 780 777 772 765 758 752 746 743 738 731 725 718 710 703 696 687 677 667 656 647 640 632 625 622 621 624 629 630 635
810 814 812 811 799 800 801 794 791 790 790 795 791 788 775 773 772 768 760 755 750 746 741 734 729 724 716 708 701 692 684 674 663 652 641 629 625 620 615 617 624 627 631 638
811 814 819 813 803 800 803 792 788 786 785 787 792 778 773 773 770 764 758 755 751 745 740 734 729 724 716 707 700 691 681 671 660 650 639 629 624 622 621 620 626 630 637 643
810 813 815 813 804 811 788 777 778 783 782 780 782 775 771 770 767 763 754 753 749 744 740 734 729 722 714 706 698 690 680 669 660 650 642 635 630 629 630 631 633 639 646 651
799 807 805 808 811 796 781 778 780 783 784 772 775 769 769 765 765 758 748 748 747 744 739 734 728 721 713 705 697 688 678 670 661 653 646 642 639 636 637 640 643 648 652 661
798 803 807 810 806 820 790 776 773 776 793 769 768 770 769 767 766 755 746 746 744 741 737 733 726 721 713 704 696 688 679 672 666 657 652 648 647 645 645 648 651 657 660 669
807 809 809 814 805 794 780 774 772 789 791 769 765 766 766 767 762 747 747 744 744 741 737 733 727 721 713 704 696 689 683 677 671 664 659 656 656 654 658 658 661 664 669 676
797 807 809 811 809 802 776 774 779 782 775 770 766 762 762 758 752 747 745 745 743 740 737 733 727 720 713 705 698 692 687 682 677 670 666 664 664 666 671 666 671 675 679 684
796 794 798 798 794 781 778 778 776 775 774 769 765 759 757 754 748 745 744 744 744 743 739 735 729 721 715 708 702 697 693 688 684 678 676 674 674 677 679 679 681 686 690 696
788 791 795 790 782 777 779 776 776 774 771 766 761 758 754 751 743 743 743 744 744 743 740 736 730 723 718 712 707 702 698 695 690 686 686 685 687 691 692 694 695 700 707 708
792 790 794 797 787 780 776 775 774 769 766 763 759 756 753 747 742 742 744 744 744 744 742 738 733 727 722 717 712 708 704 703 699 696 695 696 697 700 703 704 709 712 717 718
789 789 795 795 783 781 778 772 769 768 766 763 761 756 752 747 744 744 746 746 745 744 743 739 736 731 726 721 717 714 711 709 707 705 706 707 709 713 715 717 722 727 729 731